| time (UTC) | temp F | wind direction | speed knots | gust knots | rain 1hr in | rain 24hr in | rain mn in | humidity % | barometer mb |
| 20260507165535 | 49 | 27 | 1.7 | 3.5 | 0.00 | 0.00 | 0.00 | 54 | 1019.8 |
| 20260507164533 | 48 | 34 | 1.7 | 3.5 | 0.00 | 0.00 | 0.00 | 56 | 1020.0 |
| 20260507163532 | 47 | 85 | 2.6 | 4.3 | 0.00 | 0.00 | 0.00 | 61 | 1019.8 |
| 20260507162531 | 48 | 89 | 3.5 | 5.2 | 0.00 | 0.00 | 0.00 | 59 | 1019.9 |
| 20260507161530 | 47 | 82 | 1.7 | 2.6 | 0.00 | 0.00 | 0.00 | 58 | 1019.9 |
| 20260507160528 | 48 | 141 | 2.6 | 3.5 | 0.00 | 0.00 | 0.00 | 56 | 1019.6 |
| 20260507155528 | 49 | 122 | 2.6 | 3.5 | 0.00 | 0.00 | 0.00 | 56 | 1019.9 |
| 20260507154526 | 51 | 268 | 2.6 | 4.3 | 0.00 | 0.00 | 0.00 | 55 | 1020.2 |
| 20260507153525 | 51 | 291 | 0.9 | 1.7 | 0.00 | 0.00 | 0.00 | 45 | 1020.1 |
| 20260507152524 | 52 | 269 | 1.7 | 3.5 | 0.00 | 0.00 | 0.00 | 44 | 1020.1 |
| 20260507151523 | 52 | 168 | 2.6 | 2.6 | 0.00 | 0.00 | 0.00 | 44 | 1020.1 |
| 20260507150542 | 52 | 228 | 0.9 | 1.7 | 0.00 | 0.00 | 0.00 | 43 | 1020.1 |
| 20260507145520 | 53 | 165 | 1.7 | 1.7 | 0.00 | 0.00 | 0.00 | 42 | 1020.1 |
| 20260507144539 | 52 | 186 | 1.7 | 1.7 | 0.00 | 0.00 | 0.00 | 42 | 1020.1 |
| 20260507143518 | 53 | 162 | 1.7 | 2.6 | 0.00 | 0.00 | 0.00 | 41 | 1019.9 |
| 20260507142516 | 53 | 178 | 2.6 | 4.3 | 0.00 | 0.00 | 0.00 | 40 | 1020.1 |
| 20260507141545 | 54 | 124 | 1.7 | 1.7 | 0.00 | 0.00 | 0.00 | 39 | 1020.1 |
| 20260507140544 | 54 | 169 | 1.7 | 2.6 | 0.00 | 0.00 | 0.00 | 38 | 1020.1 |
| 20260507135544 | 54 | 150 | 3.5 | 3.5 | 0.00 | 0.00 | 0.00 | 38 | 1020.1 |
| 20260507134602 | 55 | 209 | 3.5 | 5.2 | 0.00 | 0.00 | 0.00 | 37 | 1020.0 |
| 20260507133540 | 55 | 161 | 3.5 | 4.3 | 0.00 | 0.00 | 0.00 | 37 | 1019.9 |
| 20260507132539 | 55 | 161 | 3.5 | 4.3 | 0.00 | 0.00 | 0.00 | 36 | 1019.9 |
| 20260507131539 | 55 | 154 | 1.7 | 3.5 | 0.00 | 0.00 | 0.00 | 36 | 1020.0 |
| 20260507130537 | 55 | 172 | 2.6 | 5.2 | 0.00 | 0.00 | 0.00 | 35 | 1020.0 |
| 20260507125535 | 55 | 148 | 2.6 | 4.3 | 0.00 | 0.00 | 0.00 | 36 | 1020.1 |
| 20260507124555 | 55 | 156 | 3.5 | 4.3 | 0.00 | 0.00 | 0.00 | 36 | 1019.8 |
| 20260507123533 | 56 | 144 | 4.3 | 5.2 | 0.00 | 0.00 | 0.00 | 35 | 1019.6 |
| 20260507122531 | 56 | 159 | 2.6 | 3.5 | 0.00 | 0.00 | 0.00 | 34 | 1019.7 |
| 20260507121530 | 56 | 199 | 2.6 | 4.3 | 0.00 | 0.00 | 0.00 | 34 | 1019.7 |
| 20260507120529 | 56 | 189 | 1.7 | 3.5 | 0.00 | 0.00 | 0.00 | 34 | 1019.9 |
| 20260507115527 | 56 | 176 | 2.6 | 4.3 | 0.00 | 0.00 | 0.00 | 33 | 1019.8 |
| 20260507114526 | 57 | 149 | 1.7 | 3.5 | 0.00 | 0.00 | 0.00 | 34 | 1019.8 |
| 20260507113525 | 57 | 140 | 2.6 | 3.5 | 0.00 | 0.00 | 0.00 | 33 | 1019.8 |
| 20260507112523 | 58 | 168 | 2.6 | 4.3 | 0.00 | 0.00 | 0.00 | 32 | 1019.9 |
| 20260507111522 | 58 | 194 | 4.3 | 5.2 | 0.00 | 0.00 | 0.00 | 31 | 1019.7 |
| 20260507110521 | 58 | 163 | 3.5 | 5.2 | 0.00 | 0.00 | 0.00 | 32 | 1019.7 |
| 20260507105520 | 58 | 185 | 4.3 | 7.0 | 0.00 | 0.00 | 0.00 | 31 | 1019.5 |
| 20260507104538 | 58 | 163 | 1.7 | 3.5 | 0.00 | 0.00 | 0.00 | 32 | 1019.3 |
| 20260507103517 | 59 | 176 | 3.5 | 4.3 | 0.00 | 0.00 | 0.00 | 31 | 1019.3 |
| 20260507102516 | 59 | 194 | 2.6 | 5.2 | 0.00 | 0.00 | 0.00 | 30 | 1019.3 |
| 20260507101545 | 60 | 199 | 3.5 | 7.0 | 0.00 | 0.00 | 0.00 | 30 | 1019.1 |
| 20260507100604 | 60 | 165 | 3.5 | 4.3 | 0.00 | 0.00 | 0.00 | 30 | 1019.2 |
| 20260507095542 | 60 | 148 | 2.6 | 3.5 | 0.00 | 0.00 | 0.00 | 30 | 1019.1 |
| 20260507094541 | 60 | 195 | 4.3 | 5.2 | 0.00 | 0.00 | 0.00 | 30 | 1019.0 |
| 20260507093540 | 61 | 169 | 4.3 | 6.1 | 0.00 | 0.00 | 0.00 | 30 | 1018.9 |
| 20260507092539 | 61 | 160 | 2.6 | 3.5 | 0.00 | 0.00 | 0.00 | 30 | 1018.8 |
| 20260507091538 | 61 | 187 | 2.6 | 6.1 | 0.00 | 0.00 | 0.00 | 28 | 1018.6 |
| 20260507090536 | 62 | 171 | 3.5 | 5.2 | 0.00 | 0.00 | 0.00 | 29 | 1018.6 |
| 20260507085535 | 62 | 199 | 4.3 | 8.7 | 0.00 | 0.00 | 0.00 | 27 | 1018.3 |
| 20260507084533 | 63 | 212 | 4.3 | 7.0 | 0.00 | 0.00 | 0.00 | 29 | 1017.8 |
| 20260507083533 | 63 | 199 | 3.5 | 8.7 | 0.00 | 0.00 | 0.00 | 29 | 1017.6 |
| 20260507082531 | 64 | 241 | 7.8 | 13.0 | 0.00 | 0.00 | 0.00 | 28 | 1017.5 |
| 20260507081530 | 64 | 225 | 11.3 | 20.9 | 0.00 | 0.00 | 0.00 | 30 | 1016.8 |
| 20260507080549 | 65 | 212 | 4.3 | 7.8 | 0.00 | 0.00 | 0.00 | 34 | 1016.4 |
| 20260507075528 | 66 | 183 | 2.6 | 3.5 | 0.00 | 0.00 | 0.00 | 40 | 1016.0 |
| 20260507074526 | 66 | 242 | 3.5 | 7.8 | 0.00 | 0.00 | 0.00 | 37 | 1015.6 |
| 20260507073545 | 67 | 242 | 5.2 | 7.8 | 0.00 | 0.00 | 0.00 | 36 | 1015.3 |
| 20260507072524 | 68 | 239 | 4.3 | 6.1 | 0.00 | 0.00 | 0.00 | 40 | 1014.9 |
| 20260507071523 | 68 | 255 | 6.1 | 9.6 | 0.00 | 0.00 | 0.00 | 40 | 1014.8 |
| 20260507070521 | 69 | 247 | 5.2 | 5.2 | 0.00 | 0.00 | 0.00 | 40 | 1014.5 |
| 20260507065520 | 69 | 259 | 5.2 | 11.3 | 0.00 | 0.00 | 0.00 | 40 | 1014.1 |
| 20260507064518 | 69 | 243 | 6.1 | 9.6 | 0.00 | 0.00 | 0.00 | 39 | 1014.0 |
| 20260507063517 | 70 | 250 | 6.1 | 7.8 | 0.00 | 0.00 | 0.00 | 39 | 1013.6 |
| 20260507062546 | 71 | 258 | 3.5 | 4.3 | 0.00 | 0.00 | 0.00 | 45 | 1013.3 |
| 20260507061545 | 71 | 229 | 1.7 | 2.6 | 0.00 | 0.00 | 0.00 | 57 | 1013.2 |
| 20260507060543 | 71 | 157 | 2.6 | 3.5 | 0.00 | 0.00 | 0.00 | 59 | 1013.0 |
| 20260507055542 | 71 | 100 | 1.7 | 3.5 | 0.00 | 0.00 | 0.00 | 55 | 1012.8 |
| 20260507054540 | 72 | 127 | 1.7 | 3.5 | 0.00 | 0.00 | 0.00 | 54 | 1012.5 |
| 20260507053539 | 70 | 98 | 1.7 | 2.6 | 0.00 | 0.00 | 0.00 | 57 | 1012.7 |
| 20260507052558 | 70 | 141 | 3.5 | 5.2 | 0.00 | 0.00 | 0.00 | 57 | 1012.5 |
| 20260507051537 | 71 | 118 | 3.5 | 3.5 | 0.00 | 0.00 | 0.00 | 57 | 1012.3 |
| 20260507050536 | 70 | 110 | 4.3 | 6.1 | 0.00 | 0.00 | 0.00 | 58 | 1012.3 |
| 20260507045555 | 71 | 100 | 4.3 | 6.1 | 0.00 | 0.00 | 0.00 | 56 | 1012.2 |
| 20260507044533 | 71 | 106 | 2.6 | 5.2 | 0.00 | 0.00 | 0.00 | 57 | 1012.3 |
| 20260507043532 | 71 | 135 | 5.2 | 7.8 | 0.00 | 0.00 | 0.00 | 56 | 1012.4 |
| 20260507042530 | 72 | 121 | 5.2 | 7.8 | 0.00 | 0.00 | 0.00 | 48 | 1012.2 |
| 20260507041529 | 72 | 152 | 5.2 | 7.8 | 0.00 | 0.00 | 0.00 | 46 | 1012.2 |
| 20260507040528 | 72 | 154 | 3.5 | 4.3 | 0.00 | 0.00 | 0.00 | 48 | 1012.3 |
| 20260507035527 | 72 | 145 | 5.2 | 7.8 | 0.00 | 0.00 | 0.00 | 47 | 1012.3 |
| 20260507034525 | 72 | 138 | 5.2 | 7.0 | 0.00 | 0.00 | 0.00 | 48 | 1012.5 |
| 20260507033524 | 72 | 144 | 4.3 | 7.0 | 0.00 | 0.00 | 0.00 | 47 | 1012.5 |
| 20260507032523 | 73 | 173 | 4.3 | 5.2 | 0.00 | 0.00 | 0.00 | 42 | 1012.8 |
| 20260507031522 | 72 | 161 | 1.7 | 2.6 | 0.00 | 0.00 | 0.00 | 43 | 1012.9 |
| 20260507030521 | 72 | 17 | 0.9 | 1.7 | 0.00 | 0.00 | 0.00 | 43 | 1013.0 |
| 20260507025539 | 73 | 119 | 2.6 | 4.3 | 0.00 | 0.00 | 0.00 | 42 | 1013.3 |
| 20260507024519 | 73 | 335 | 1.7 | 2.6 | 0.00 | 0.00 | 0.00 | 41 | 1013.3 |
| 20260507023517 | 72 | 162 | 5.2 | 5.2 | 0.00 | 0.00 | 0.00 | 45 | 1013.3 |
| 20260507022516 | 71 | 148 | 1.7 | 1.7 | 0.00 | 0.00 | 0.00 | 44 | 1013.5 |
| 20260507021545 | 71 | 248 | 3.5 | 5.2 | 0.00 | 0.00 | 0.00 | 45 | 1013.7 |
| 20260507020543 | 70 | 222 | 2.6 | 3.5 | 0.00 | 0.00 | 0.00 | 46 | 1013.8 |
| 20260507015542 | 69 | 273 | 1.7 | 2.6 | 0.00 | 0.00 | 0.00 | 45 | 1013.8 |
| 20260507014601 | 70 | 254 | 2.6 | 2.6 | 0.00 | 0.00 | 0.00 | 45 | 1014.0 |
| 20260507013600 | 69 | 263 | 2.6 | 2.6 | 0.00 | 0.00 | 0.00 | 45 | 1014.1 |
| 20260507012538 | 69 | 241 | 2.6 | 4.3 | 0.00 | 0.00 | 0.00 | 45 | 1014.2 |
| 20260507011537 | 69 | 237 | 2.6 | 3.5 | 0.00 | 0.00 | 0.00 | 47 | 1014.5 |
| 20260507010535 | 69 | 236 | 1.7 | 3.5 | 0.00 | 0.00 | 0.00 | 46 | 1014.5 |
| 20260507005554 | 69 | 257 | 5.2 | 7.0 | 0.00 | 0.00 | 0.00 | 45 | 1014.6 |
| 20260507004553 | 70 | 251 | 5.2 | 8.7 | 0.00 | 0.00 | 0.00 | 41 | 1014.8 |
| 20260507003531 | 70 | 224 | 2.6 | 5.2 | 0.00 | 0.00 | 0.00 | 46 | 1014.9 |
| 20260507002530 | 69 | 266 | 4.3 | 8.7 | 0.00 | 0.00 | 0.00 | 50 | 1015.0 |
| 20260507001529 | 68 | 267 | 3.5 | 4.3 | 0.00 | 0.00 | 0.00 | 60 | 1015.0 |
| 20260507000528 | 68 | 267 | 1.7 | 5.2 | 0.00 | 0.00 | 0.00 | 59 | 1014.8 |
| 20260506235526 | 68 | 215 | 1.7 | 2.6 | 0.00 | 0.00 | 0.00 | 64 | 1015.0 |
| 20260506234526 | 67 | 226 | 1.7 | 3.5 | 0.00 | 0.00 | 0.00 | 65 | 1015.2 |
| 20260506233524 | 67 | 260 | 1.7 | 3.5 | 0.00 | 0.00 | 0.00 | 70 | 1015.1 |
| 20260506232522 | 66 | 263 | 3.5 | 4.3 | 0.00 | 0.00 | 0.00 | 71 | 1015.3 |
| 20260506231521 | 65 | 270 | 1.7 | 2.6 | 0.00 | 0.00 | 0.00 | 75 | 1015.2 |
| 20260506230540 | 63 | 256 | 1.7 | 3.5 | 0.00 | 0.00 | 0.00 | 83 | 1015.2 |
| 20260506225519 | 62 | 232 | 2.6 | 4.3 | 0.00 | 0.00 | 0.00 | 88 | 1015.3 |
| 20260506224538 | 62 | 317 | 2.6 | 6.1 | 0.00 | 0.00 | 0.00 | 88 | 1015.3 |
| 20260506223536 | 62 | 208 | 1.7 | 6.1 | 0.00 | 0.00 | 0.00 | 87 | 1015.4 |
| 20260506222545 | 61 | 256 | 4.3 | 5.2 | 0.00 | 0.00 | 0.00 | 90 | 1015.3 |
| 20260506221544 | 60 | 269 | 2.6 | 4.3 | 0.00 | 0.00 | 0.00 | 92 | 1015.1 |
| 20260506220603 | 59 | 307 | 1.7 | 3.5 | 0.00 | 0.00 | 0.00 | 94 | 1015.3 |
| 20260506215601 | 58 | 322 | 0.9 | 2.6 | 0.00 | 0.00 | 0.00 | 95 | 1015.3 |
| 20260506214540 | 58 | 296 | 1.7 | 3.5 | 0.00 | 0.00 | 0.00 | 95 | 1015.1 |
| 20260506213539 | 58 | 87 | 1.7 | 3.5 | 0.00 | 0.00 | 0.00 | 96 | 1015.2 |
| 20260506212538 | 58 | 261 | 2.6 | 2.6 | 0.00 | 0.00 | 0.00 | 96 | 1015.1 |
| 20260506211557 | 57 | 67 | 0.9 | 2.6 | 0.00 | 0.00 | 0.00 | 97 | 1015.0 |
| 20260506210536 | 57 | 70 | 1.7 | 2.6 | 0.00 | 0.00 | 0.00 | 97 | 1014.9 |
| 20260506205554 | 57 | 62 | 1.7 | 2.6 | 0.00 | 0.00 | 0.00 | 98 | 1014.8 |
| 20260506204533 | 57 | 88 | 1.7 | 2.6 | 0.00 | 0.00 | 0.00 | 98 | 1014.8 |
| 20260506203532 | 57 | 93 | 1.7 | 2.6 | 0.00 | 0.00 | 0.00 | 98 | 1014.6 |
| 20260506202530 | 57 | 0.0 | 1.7 | 0.00 | 0.00 | 0.00 | 98 | 1014.6 | |
| 20260506201529 | 57 | 59 | 1.7 | 2.6 | 0.00 | 0.00 | 0.00 | 98 | 1014.7 |
| 20260506200528 | 57 | 65 | 0.9 | 1.7 | 0.00 | 0.00 | 0.00 | 98 | 1014.6 |
| 20260506195546 | 57 | 112 | 0.9 | 2.6 | 0.00 | 0.00 | 0.00 | 99 | 1014.5 |
| 20260506194525 | 56 | 106 | 0.9 | 1.7 | 0.00 | 0.00 | 0.00 | 99 | 1014.7 |
| 20260506193524 | 57 | 119 | 1.7 | 2.6 | 0.00 | 0.00 | 0.00 | 99 | 1014.6 |
| 20260506192523 | 57 | 46 | 1.7 | 3.5 | 0.00 | 0.00 | 0.00 | 99 | 1014.5 |
| 20260506191521 | 56 | 97 | 1.7 | 2.6 | 0.00 | 0.00 | 0.00 | 99 | 1014.7 |
| 20260506190519 | 56 | 104 | 0.9 | 2.6 | 0.00 | 0.00 | 0.00 | 98 | 1014.6 |
| 20260506185519 | 56 | 29 | 1.7 | 2.6 | 0.00 | 0.00 | 0.00 | 99 | 1014.6 |
| 20260506184517 | 56 | 109 | 1.7 | 2.6 | 0.00 | 0.00 | 0.00 | 98 | 1014.6 |
| 20260506183516 | 56 | 105 | 2.6 | 3.5 | 0.00 | 0.00 | 0.00 | 98 | 1014.5 |
| 20260506182605 | 56 | 109 | 2.6 | 3.5 | 0.00 | 0.00 | 0.00 | 98 | 1014.7 |